Ocala, FL

7:14 AM EDT on June 28, 2017 (GMT -0400)
Ocala Regional-Taylor

Weather History for KOCF - January, 2013

Change the Weather History Date:

Tuesday, January 15, 2013

  Actual Average Record
Temperature  
Mean Temperature 70 °F -  
Max Temperature 82 °F 66 °F 82 °F (2013)
Min Temperature 57 °F 41 °F 28 °F (2009)
Cooling Degree Days 4    
Growing Degree Days 20 (Base 50)    
Moisture  
Dew Point 54 °F    
Average Humidity 67    
Maximum Humidity 83    
Minimum Humidity 37    
Precipitation  
Precipitation 0.00 in - - ()
Sea Level Pressure  
Sea Level Pressure 30.12 in    
Wind  
Wind Speed 2 mph (South)    
Max Wind Speed 13 mph    
Max Gust Speed 17 mph    
Visibility 8 miles    
Events Fog    
Averages and records for this station are not official NWS values.
T = Trace of Precipitation, MM = Missing Value Source: NWS Daily Summary

Daily Weather History Graph

Daily Weather History Graph

Search for Another Location

Airport or City:

Trip Planner

Search our weather history database for the weather conditions in past years. The results will help you decide how hot, cold, wet, or windy it might be!

Date:

Astronomy

Jan. 15, 2013 Rise Set
Actual Time 7:23 AM EST 5:53 PM EST
Civil Twilight 6:58 AM EST 6:18 PM EST
Nautical Twilight 6:29 AM EST 6:48 PM EST
Astronomical Twilight 6:00 AM EST 7:16 PM EST
Moon 9:52 AM EST (1/15) 10:15 PM EST (1/15)
Length of Visible Light 11h 20m
Length of Day
10h 29m
Waxing Crescent, 19% of the Moon is Illuminated
Jan 15
Waxing Crescent
Jan 18
First Quarter
Jan 26
Full
Feb 3
Last Quarter
Feb 10
New

Hourly Weather History & Observations

Time (EST) Temp. Heat Index Dew Point Humidity Pressure Visibility Wind Dir Wind Speed Gust Speed Precip Events Conditions
12:15 AM 62.6 °F - 53.6 °F 72% 30.17 in 10.0 mi Calm Calm - N/A   Overcast
12:35 AM 64.4 °F - 53.6 °F 68% 30.17 in 10.0 mi Calm Calm - N/A   Overcast
12:55 AM 64.4 °F - 53.6 °F 68% 30.17 in 10.0 mi Calm Calm - N/A   Overcast
1:15 AM 64.4 °F - 53.6 °F 68% 30.17 in 10.0 mi Calm Calm - N/A   Overcast
1:35 AM 62.6 °F - 53.6 °F 72% 30.16 in 10.0 mi Calm Calm - N/A   Overcast
1:55 AM 62.6 °F - 53.6 °F 72% 30.16 in 10.0 mi Calm Calm - N/A   Scattered Clouds
2:15 AM 60.8 °F - 51.8 °F 72% 30.16 in 10.0 mi NNW 3.5 mph - N/A   Partly Cloudy
2:35 AM 62.6 °F - 53.6 °F 72% 30.16 in 10.0 mi Calm Calm - N/A   Mostly Cloudy
2:55 AM 60.8 °F - 51.8 °F 72% 30.15 in 10.0 mi SSE 3.5 mph - N/A   Partly Cloudy
3:15 AM 60.8 °F - 53.6 °F 77% 30.15 in 10.0 mi SSE 4.6 mph - N/A   Clear
3:35 AM 60.8 °F - 51.8 °F 72% 30.14 in 9.0 mi Calm Calm - N/A   Clear
3:55 AM 60.8 °F - 53.6 °F 77% 30.13 in 7.0 mi Calm Calm - N/A   Clear
4:15 AM 62.6 °F - 55.4 °F 77% 30.13 in 8.0 mi Calm Calm - N/A   Clear
4:35 AM 60.8 °F - 53.6 °F 77% 30.13 in 3.0 mi Calm Calm - N/A   Clear
4:55 AM 62.6 °F - 55.4 °F 77% 30.13 in 1.2 mi Calm Calm - N/A   Clear
5:15 AM 62.6 °F - 55.4 °F 77% 30.13 in 0.8 mi Calm Calm - N/A   Unknown
5:55 AM 57.2 °F - 51.8 °F 82% 30.13 in 1.2 mi Calm Calm - N/A   Clear
6:15 AM 60.8 °F - 53.6 °F 77% 30.13 in 0.8 mi Calm Calm - N/A   Unknown
6:35 AM 60.8 °F - 53.6 °F 77% 30.13 in 0.2 mi Calm Calm - N/A   Unknown
7:50 AM 57.2 °F - 50.0 °F 77% 30.16 in 0.2 mi Calm Calm - N/A Fog Fog
9:40 AM 64.4 °F - 59.0 °F 83% 30.17 in 5.0 mi South 5.8 mph - N/A   Scattered Clouds
9:50 AM 66.2 °F - 60.8 °F 83% 30.17 in 6.0 mi SSW 5.8 mph - N/A   Scattered Clouds
10:50 AM 73.4 °F - 60.8 °F 65% 30.16 in 10.0 mi SSW 10.4 mph - N/A   Partly Cloudy
11:50 AM 78.8 °F - 57.2 °F 47% 30.13 in 10.0 mi South 8.1 mph 16.1 mph N/A   Mostly Cloudy
12:50 PM 78.8 °F - 55.4 °F 44% 30.10 in 10.0 mi South 12.7 mph 17.3 mph N/A   Scattered Clouds
1:50 PM 80.6 °F 80.5 °F 55.4 °F 42% 30.07 in 10.0 mi South 9.2 mph - N/A   Scattered Clouds
2:50 PM 82.4 °F 81.7 °F 55.4 °F 39% 30.06 in 10.0 mi SSW 9.2 mph - N/A   Scattered Clouds
3:50 PM 82.4 °F 81.4 °F 53.6 °F 37% 30.06 in 10.0 mi South 4.6 mph - N/A   Scattered Clouds
4:50 PM 80.6 °F 80.3 °F 53.6 °F 39% 30.07 in 10.0 mi SW 9.2 mph - N/A   Scattered Clouds
5:50 PM 75.2 °F - 55.4 °F 50% 30.08 in 10.0 mi West 6.9 mph - N/A   Scattered Clouds
6:50 PM 71.6 °F - 55.4 °F 57% 30.08 in 10.0 mi Calm Calm - N/A   Scattered Clouds
7:55 PM 69.8 °F - 53.6 °F 56% 30.09 in 10.0 mi Calm Calm - N/A   Overcast
8:15 PM 68.0 °F - 55.4 °F 64% 30.09 in 10.0 mi Calm Calm - N/A   Mostly Cloudy
8:35 PM 64.4 °F - 53.6 °F 68% 30.08 in 10.0 mi Calm Calm - N/A   Scattered Clouds
8:55 PM 64.4 °F - 53.6 °F 68% 30.08 in 10.0 mi ENE 4.6 mph - N/A   Clear
9:15 PM 64.4 °F - 53.6 °F 68% 30.09 in 10.0 mi Calm Calm - N/A   Partly Cloudy
9:35 PM 64.4 °F - 53.6 °F 68% 30.10 in 10.0 mi Calm Calm - N/A   Scattered Clouds
9:55 PM 62.6 °F - 53.6 °F 72% 30.09 in 10.0 mi Calm Calm - N/A   Partly Cloudy
10:15 PM 62.6 °F - 53.6 °F 72% 30.08 in 10.0 mi Calm Calm - N/A   Clear
10:35 PM 62.6 °F - 51.8 °F 68% 30.08 in 10.0 mi Calm Calm - N/A   Mostly Cloudy
10:55 PM 64.4 °F - 53.6 °F 68% 30.09 in 10.0 mi Calm Calm - N/A   Overcast
11:15 PM 64.4 °F - 53.6 °F 68% 30.08 in 10.0 mi Calm Calm - N/A   Overcast
11:35 PM 64.4 °F - 53.6 °F 68% 30.08 in 10.0 mi Calm Calm - N/A   Mostly Cloudy
11:55 PM 62.6 °F - 53.6 °F 72% 30.08 in 10.0 mi Calm Calm - N/A   Mostly Cloudy